RH
5 5 5 5 6 5 6 6 6 7 7 6 6 6 6 6 6 7 7 7 7 7 7 7 7 8 8 8 8 8 7 8 8 9 9 9 8 8 8 7 7 6
5 5 5 6 6 6 6 7 7 7 7 7 7 6 6 6 6 7 7 7 7 7 7 7 8 8 9 9 8 8 8 8 9 9 9 9 8 9 8 8 7 6
5 5 5 6 6 6 7 7 7 8 7 8 7 6 6 6 7 7 7 8 8 8 8 8 9 9 9 10 9 9 8 8 9 9 9 9 8 9 8 8 7 6
6 5 5 6 5 6 6 7 7 8 8 8 7 7 6 6 8 8 8 9 8 9 9 9 10 10 9 10 9 9 9 9 9 9 9 9 8 8 8 8 8 6
6 6 6 6 6 6 6 7 7 8 8 9 8 7 6 7 9 9 10 10 9 9 10 10 10 9 9 9 9 9 9 9 9 9 9 9 8 8 8 8 8 6
7 7 6 6 6 6 6 7 7 8 8 9 9 7 7 7 9 10 10 9 9 9 10 10 9 9 9 9 9 9 9 9 9 9 9 8 8 8 8 8 7 6
9 8 8 7 7 7 7 7 8 8 8 8 9 8 7 8 8 9 10 9 9 10 10 9 9 9 9 9 9 9 9 9 9 9 9 8 8 8 8 8 7 6
9 10 9 9 8 7 7 8 8 8 8 8 8 8 8 8 8 9 10 9 9 10 9 9 9 9 10 10 10 9 9 8 8 9 8 8 8 8 8 8 7 6
8 10 10 10 9 9 8 9 8 8 8 8 8 8 8 8 8 9 10 10 10 9 9 9 9 10 10 10 10 9 8 8 8 8 8 8 8 8 8 8 7 6
8 9 10 11 10 10 10 10 9 9 9 9 9 9 9 9 9 10 10 10 10 9 9 9 10 11 11 11 10 9 8 8 8 8 8 7 8 8 8 8 7 6
9 9 10 11 11 11 11 11 11 10 10 11 10 10 10 10 10 11 11 10 10 9 9 10 10 11 12 12 11 10 9 8 7 7 7 7 7 8 8 8 7 6
9 10 11 11 11 11 12 11 12 12 12 12 12 12 12 11 12 12 12 11 11 10 10 11 11 11 13 12 10 10 9 7 7 7 7 7 7 8 8 7 7 6
9 9 10 11 11 11 11 12 12 12 13 14 13 13 13 12 13 13 13 12 12 11 11 11 12 12 13 12 10 10 9 7 7 6 7 7 7 8 8 7 7 6
8 9 10 11 11 11 11 12 12 12 13 14 14 14 13 13 13 13 13 13 12 12 12 12 12 12 13 13 11 10 8 7 6 6 7 7 7 8 8 7 7 6
8 9 10 10 11 11 11 12 13 13 14 15 15 14 13 12 13 13 13 13 13 13 13 13 13 13 13 13 11 10 9 7 6 6 7 7 8 8 7 7 7 6
7 8 9 10 10 11 11 12 12 13 14 15 15 15 14 12 12 13 13 12 13 14 13 13 13 13 13 13 11 10 9 7 6 6 7 7 8 8 7 6 6 6
6 7 8 9 10 11 11 11 11 12 14 14 14 15 15 13 13 13 12 12 13 14 13 13 14 13 13 13 12 10 9 7 7 6 7 8 8 7 6 6 6 6
6 7 8 8 9 10 10 11 11 11 13 13 14 15 15 14 13 13 12 11 11 13 13 13 14 13 13 14 12 10 9 7 6 6 7 8 8 7 7 6 6 6
5 6 7 7 8 9 10 10 10 10 12 13 13 14 14 14 13 13 13 12 11 12 12 13 14 13 13 13 11 9 9 7 6 7 7 8 8 7 7 6 7 7
4 5 6 7 7 8 9 9 9 9 11 12 12 13 14 13 13 12 12 12 12 12 13 13 13 12 12 11 9 8 8 7 6 7 7 8 8 7 7 7 7 7
4 4 6 6 6 7 7 8 9 9 10 11 11 12 12 12 12 12 12 12 12 13 13 13 13 11 11 10 9 8 8 6 6 7 8 8 8 7 7 7 7 7
4 4 5 6 6 6 6 7 8 8 9 10 10 11 11 11 11 12 12 13 13 13 14 13 13 11 11 10 8 8 8 6 6 7 8 8 8 7 7 8 8 7
4 4 5 5 5 6 6 6 7 8 8 9 9 10 10 10 11 12 12 14 14 14 14 13 12 11 10 9 8 7 7 7 6 7 8 8 8 7 8 8 8 7
3 4 4 5 5 5 6 6 6 7 8 8 8 9 10 10 11 11 12 13 14 14 14 13 12 10 9 9 8 7 7 7 7 8 8 8 7 7 8 8 8 7
3 3 4 4 5 5 5 5 6 6 7 8 8 8 9 10 11 11 12 12 13 13 13 12 11 9 8 8 8 7 7 7 7 8 8 7 7 8 8 8 8 8
3 3 3 4 4 5 5 5 6 6 6 7 7 8 9 10 10 11 12 12 12 13 12 11 10 8 8 8 8 7 7 7 7 8 7 7 7 8 8 8 8 8
Wind_Speed
92 90 89 88 87 85 83 82 82 82 81 81 80 79 79 78 77 77 77 77 77 77 76 75 74 75 76 76 75 73 72 71 71 71 71 70 67 65 64 63 63 62
87 86 84 83 83 83 82 81 80 80 80 80 80 79 79 78 77 76 76 77 77 76 75 74 74 74 75 75 73 72 70 70 70 70 70 68 65 64 63 62 62 62
83 81 80 80 80 80 80 79 79 79 79 79 80 79 78 77 76 76 76 76 75 75 74 73 73 73 73 73 71 70 69 69 69 69 68 66 64 63 62 62 62 62
78 78 77 77 77 77 77 77 78 78 78 79 79 79 78 77 75 74 74 75 74 74 73 72 72 72 72 71 69 68 68 67 67 67 66 64 63 62 62 61 62 62
75 74 74 74 74 75 75 75 76 77 76 77 79 79 78 75 73 72 73 74 73 71 71 70 70 69 68 67 66 66 66 66 66 66 64 63 61 61 61 61 61 61
72 72 72 72 72 72 73 73 74 75 75 76 77 78 77 74 71 70 71 72 71 69 68 68 67 66 65 64 64 64 64 64 64 64 63 61 60 60 60 60 60 60
69 70 70 70 70 70 71 71 72 73 74 75 76 77 76 73 71 69 70 70 68 66 65 64 63 62 61 61 62 62 63 63 63 62 61 60 59 59 59 59 60 60
65 67 68 69 69 69 69 69 70 72 73 73 75 76 74 72 70 67 67 67 66 64 62 61 59 59 59 60 61 61 61 61 61 61 60 59 58 58 58 58 59 58
63 64 65 67 68 68 67 67 68 70 71 71 73 74 73 71 68 66 65 65 63 62 60 58 57 56 58 59 61 61 61 60 60 60 59 58 57 57 57 57 58 57
63 63 63 65 66 66 66 66 67 68 69 70 71 72 71 69 67 65 64 63 61 60 58 56 55 55 57 59 61 61 61 61 60 59 58 57 56 56 56 56 57 56
63 63 63 63 64 64 64 64 65 66 67 68 70 70 69 67 64 63 63 61 60 58 58 56 55 54 56 58 60 60 61 61 60 59 57 56 55 55 55 55 55 55
62 62 63 63 63 63 63 63 63 64 65 66 67 69 67 65 63 62 61 60 59 58 57 57 55 54 55 58 59 59 60 61 60 59 56 55 54 54 55 55 54 53
62 62 62 63 63 63 62 62 61 62 63 64 65 67 66 64 62 61 60 59 58 57 57 57 56 55 56 59 59 59 60 61 60 58 56 54 53 53 54 54 53 52
62 62 61 62 63 63 62 61 61 61 62 62 64 65 65 64 61 60 59 58 57 57 57 58 57 56 56 59 60 59 60 61 59 57 55 53 52 53 54 54 52 50
62 62 62 61 62 62 62 61 61 61 61 61 62 64 64 63 61 59 59 57 56 56 57 57 57 57 57 59 60 59 60 60 59 56 54 53 52 53 54 53 52 49
62 61 61 61 61 61 61 61 61 61 61 61 62 63 63 63 61 60 59 57 55 56 57 57 58 58 58 59 60 59 59 59 58 55 54 51 51 52 53 52 51 49
62 62 62 61 61 61 61 61 62 61 61 62 62 62 62 62 61 60 60 57 55 56 57 57 58 59 58 59 60 59 58 58 56 54 52 50 50 52 52 52 51 48
63 62 62 62 61 61 61 62 62 61 61 62 63 61 61 62 61 60 60 59 57 57 57 57 58 59 58 58 60 59 58 57 54 51 50 49 49 51 52 51 50 47
63 62 62 62 61 61 61 62 63 62 61 62 62 61 61 61 61 60 60 60 59 58 57 57 58 59 57 58 58 57 56 55 52 49 48 47 49 50 51 50 49 47
63 61 62 62 62 62 62 63 63 63 62 62 61 60 61 61 61 60 59 60 60 59 59 58 59 59 57 57 57 55 54 53 49 46 45 46 47 49 49 49 48 46
61 60 61 62 62 62 63 63 63 63 63 62 61 60 60 62 62 60 60 59 59 60 60 59 59 59 58 58 56 54 52 50 47 44 43 45 46 47 47 47 46 45
58 57 59 62 63 63 63 63 63 63 63 62 61 60 60 61 61 60 59 59 59 60 59 59 60 59 58 57 56 53 51 49 45 42 42 44 45 45 45 45 44 43
55 55 58 62 63 63 62 63 63 64 63 62 61 61 60 60 60 59 58 58 59 59 59 59 60 59 58 57 55 53 50 47 43 41 41 43 44 44 43 43 42 41
54 55 58 61 63 63 62 62 63 63 63 62 61 60 60 59 59 58 57 57 57 58 58 59 59 59 57 56 54 52 49 46 42 40 41 43 43 42 42 41 40 39
54 56 58 60 61 62 62 62 62 63 63 62 61 59 59 58 58 57 56 56 56 57 58 59 59 57 55 54 53 50 47 44 40 39 41 42 41 41 40 39 38 37
51 54 57 59 59 60 61 62 62 62 62 61 60 58 57 57 57 56 55 55 55 56 57 59 58 56 53 52 51 48 45 42 39 39 40 40 39 40 39 38 37 36
Wind_Direction
287 288 288 290 291 292 292 292 292 292 292 293 293 293 293 293 292 292 292 292 292 293 293 294 294 295 296 297 298 300 301 302 302 302 302 302 304 304 304 304 303 303
287 287 288 289 290 290 291 291 291 291 291 291 291 291 291 292 292 292 292 292 292 292 293 294 294 295 296 297 299 300 301 301 301 301 302 303 304 305 305 305 304 303
286 286 287 287 288 288 289 289 290 290 290 290 290 290 291 291 291 291 291 291 291 292 293 294 295 295 296 297 299 300 300 301 301 301 302 303 305 306 306 305 304 304
285 285 285 285 286 286 287 287 288 288 288 288 289 289 290 290 290 290 290 290 291 292 293 294 294 295 296 298 298 299 300 300 301 301 302 304 306 307 307 305 305 304
284 284 284 284 285 285 286 286 287 287 287 287 287 288 289 289 289 289 289 289 290 292 293 293 294 296 297 298 298 298 299 300 301 302 303 305 307 308 307 305 304 304
285 284 283 283 284 284 285 285 285 285 285 285 285 287 288 288 288 287 288 289 290 292 292 294 296 298 298 298 298 299 299 300 301 303 305 307 308 308 307 305 304 304
284 284 284 283 283 283 283 283 283 284 284 284 284 285 286 287 287 288 288 290 291 292 294 296 298 299 298 298 299 299 300 300 302 304 306 307 308 308 307 306 305 304
282 282 282 282 282 281 282 282 282 282 283 283 284 285 286 287 289 289 290 291 292 294 296 298 298 298 299 299 300 300 301 303 304 305 306 307 308 308 307 306 305 305
281 280 280 280 281 281 281 281 281 281 282 283 284 285 286 288 289 290 291 292 293 295 297 298 298 299 300 300 300 301 303 305 306 306 307 308 308 308 307 306 305 306
282 279 278 278 279 280 280 280 280 281 282 282 283 284 286 288 290 291 291 292 294 295 297 298 299 299 300 300 301 303 305 306 306 307 307 308 309 308 308 307 307 308
283 280 278 277 277 278 279 279 280 280 281 282 283 284 286 288 289 290 290 292 294 296 297 298 299 299 299 300 302 304 305 305 306 307 308 309 309 309 309 308 308 309
283 280 278 277 276 276 277 277 278 279 279 280 282 283 285 286 287 288 290 292 293 295 296 297 298 299 299 300 302 303 304 305 306 307 308 309 309 310 310 308 308 309
281 279 277 276 275 275 275 275 276 276 277 278 280 282 283 285 286 287 289 290 292 294 295 296 298 299 299 300 302 303 304 305 306 307 308 310 311 311 310 308 309 309
280 277 275 274 273 274 274 274 274 274 275 276 277 279 281 283 284 285 287 288 290 292 293 295 297 298 298 299 301 303 304 304 305 307 309 311 312 311 309 309 309 310
277 275 274 272 271 271 271 272 273 273 273 274 275 277 279 281 282 284 285 286 289 290 292 294 296 297 297 298 300 302 302 304 306 309 310 312 313 311 309 309 309 309
275 273 272 271 270 269 269 270 271 272 272 273 274 275 277 280 281 282 284 285 287 288 290 292 293 294 296 297 299 301 302 304 307 310 311 312 312 309 308 308 308 309
274 272 270 269 269 268 268 268 269 270 270 271 272 273 276 278 280 282 283 285 286 286 288 290 291 292 294 296 298 301 303 304 308 310 311 312 311 308 308 308 308 308
272 270 268 267 267 266 266 266 267 268 268 269 271 272 274 277 279 281 283 285 285 285 287 288 288 290 293 295 297 301 303 305 308 310 311 311 309 307 308 308 307 308
269 267 266 265 265 264 264 265 266 266 266 268 269 271 273 275 278 280 282 284 285 286 286 287 288 290 292 294 298 301 303 305 309 311 310 310 308 307 307 307 306 308
269 266 264 264 263 263 263 264 265 266 266 266 268 269 271 274 276 278 280 282 284 285 286 287 288 290 293 295 299 302 304 306 309 310 310 308 306 306 307 306 306 308
268 266 264 263 262 262 262 263 264 265 265 266 267 268 270 273 275 277 279 281 282 284 286 287 289 292 294 297 301 304 304 306 309 310 309 306 305 306 306 305 306 307
267 265 263 262 261 261 262 263 263 264 265 265 266 267 269 271 274 276 278 279 281 282 285 287 290 292 295 298 302 304 306 308 310 309 307 305 304 305 305 304 305 307
266 264 261 261 261 261 261 262 262 263 264 265 265 266 268 270 272 274 275 277 279 281 284 286 289 292 295 299 302 305 306 308 309 308 306 304 304 305 304 304 305 308
264 262 260 259 260 261 261 261 261 262 264 264 265 265 267 269 270 272 273 274 277 280 282 285 288 291 295 298 302 305 307 309 309 307 304 303 304 305 304 304 307 309
262 261 260 259 259 260 260 260 261 262 263 264 265 265 266 268 269 270 271 273 275 277 280 283 287 291 295 298 301 304 308 308 307 304 302 302 304 304 304 305 308 311
261 260 260 259 259 259 259 260 260 261 262 264 264 265 265 266 267 268 270 271 273 275 278 282 286 291 295 298 301 304 307 306 303 301 300 302 304 304 304 306 310 312